Time,TemperatureF,DewpointF,PressureIn,WindDirection,WindDirectionDegrees,WindSpeedMPH,WindSpeedGustMPH,Humidity,HourlyPrecipIn,Conditions,Clouds,dailyrainin,SoftwareType,DateUTC
2013-04-22 00:01:00,44.9,36.4,30.59,ESE,105,2.2,23.8,72,11.12,,---,0.00,VWS V12.08,2013-04-22 04:01:00,
2013-04-22 00:06:00,45.0,36.4,30.58,SE,127,0.0,23.8,72,11.12,,---,0.00,VWS V12.08,2013-04-22 04:06:00,
2013-04-22 00:11:00,45.0,36.2,30.58,SE,127,0.0,23.8,71,11.12,,---,0.00,VWS V12.08,2013-04-22 04:11:00,
2013-04-22 00:16:00,45.0,36.3,30.58,SE,127,0.0,23.8,71,11.12,,---,0.00,VWS V12.08,2013-04-22 04:16:00,
2013-04-22 00:21:00,45.0,36.3,30.59,SE,127,0.0,23.8,71,11.12,,---,0.00,VWS V12.08,2013-04-22 04:21:00,
2013-04-22 00:26:00,45.1,36.3,30.59,ESE,114,3.4,23.8,71,11.12,,---,0.00,VWS V12.08,2013-04-22 04:26:00,
2013-04-22 00:31:00,45.0,36.1,30.59,ESE,120,3.1,23.8,71,11.12,,---,0.00,VWS V12.08,2013-04-22 04:31:00,
2013-04-22 00:36:00,45.2,36.3,30.59,SE,135,4.3,23.8,71,11.12,,---,0.00,VWS V12.08,2013-04-22 04:36:00,
2013-04-22 00:41:00,45.4,36.6,30.59,SE,146,0.0,23.8,71,11.12,,---,0.00,VWS V12.08,2013-04-22 04:41:00,
2013-04-22 00:46:00,45.4,36.8,30.59,SSE,156,3.4,23.8,72,11.12,,---,0.00,VWS V12.08,2013-04-22 04:46:00,
2013-04-22 00:51:00,45.4,37.0,30.59,SSE,163,0.0,23.8,72,11.12,,---,0.00,VWS V12.08,2013-04-22 04:51:00,
2013-04-22 00:56:00,45.3,37.0,30.59,ESE,114,3.4,23.8,72,11.12,,---,0.00,VWS V12.08,2013-04-22 04:56:00,
2013-04-22 01:01:00,45.3,37.1,30.59,South,172,0.0,23.8,73,11.12,,---,0.00,VWS V12.08,2013-04-22 05:01:00,
2013-04-22 01:06:00,45.2,37.2,30.59,SE,125,4.4,23.8,73,11.12,,---,0.00,VWS V12.08,2013-04-22 05:06:00,
2013-04-22 01:11:00,45.2,37.2,30.59,SSE,155,0.0,23.8,73,11.12,,---,0.00,VWS V12.08,2013-04-22 05:11:00,
2013-04-22 01:15:00,45.0,37.1,30.59,SSE,150,0.0,23.8,74,11.12,,---,0.00,VWS V12.08,2013-04-22 05:15:00,
2013-04-22 01:20:00,45.0,37.3,30.59,ESE,121,0.0,23.8,74,11.12,,---,0.00,VWS V12.08,2013-04-22 05:20:00,
2013-04-22 01:25:00,45.1,37.2,30.59,ESE,117,3.1,23.8,74,11.12,,---,0.00,VWS V12.08,2013-04-22 05:25:00,
2013-04-22 01:30:00,45.1,37.1,30.59,SE,128,5.9,23.8,73,11.12,,---,0.00,VWS V12.08,2013-04-22 05:30:00,
2013-04-22 01:35:00,44.9,36.8,30.59,ESE,110,3.4,23.8,73,11.12,,---,0.00,VWS V12.08,2013-04-22 05:35:00,
2013-04-22 01:40:00,44.9,36.7,30.59,East,94,2.7,0.0,73,11.12,,---,0.00,VWS V12.08,2013-04-22 05:40:00,
2013-04-22 01:45:00,45.0,36.8,30.59,East,97,9.1,23.8,73,11.12,,---,0.00,VWS V12.08,2013-04-22 05:45:00,
2013-04-22 01:50:00,45.0,37.0,30.59,East,101,4.3,23.8,73,11.12,,---,0.00,VWS V12.08,2013-04-22 05:50:00,
2013-04-22 01:55:00,45.0,37.2,30.59,SE,125,6.2,23.8,74,11.12,,---,0.00,VWS V12.08,2013-04-22 05:55:00,
2013-04-22 02:00:00,44.7,37.0,30.58,SE,127,3.2,23.8,74,11.12,,---,0.00,VWS V12.08,2013-04-22 06:00:00,
2013-04-22 02:05:00,44.7,37.0,30.58,East,101,4.2,23.8,74,11.12,,---,0.00,VWS V12.08,2013-04-22 06:05:00,
2013-04-22 02:10:00,44.6,36.9,30.58,SE,134,0.0,23.8,74,11.12,,---,0.00,VWS V12.08,2013-04-22 06:10:00,
2013-04-22 02:15:00,44.6,36.9,30.58,SSE,148,0.0,23.8,74,11.12,,---,0.00,VWS V12.08,2013-04-22 06:15:00,
2013-04-22 02:20:00,44.4,36.8,30.58,ESE,122,4.2,23.8,74,11.12,,---,0.00,VWS V12.08,2013-04-22 06:20:00,
2013-04-22 02:25:00,44.4,36.7,30.58,East,91,0.0,23.8,74,11.12,,---,0.00,VWS V12.08,2013-04-22 06:25:00,
2013-04-22 02:30:00,44.3,36.3,30.58,ESE,118,6.5,23.8,73,11.12,,---,0.00,VWS V12.08,2013-04-22 06:30:00,
2013-04-22 02:35:00,44.3,36.2,30.58,SE,138,3.1,23.8,73,11.12,,---,0.00,VWS V12.08,2013-04-22 06:35:00,
2013-04-22 02:40:00,44.2,36.1,30.59,ESE,110,8.7,23.8,73,11.12,,---,0.00,VWS V12.08,2013-04-22 06:40:00,
2013-04-22 02:45:00,44.1,36.0,30.58,SE,125,2.9,23.8,73,11.12,,---,0.00,VWS V12.08,2013-04-22 06:45:00,
2013-04-22 02:50:00,44.1,36.0,30.58,SSE,162,0.0,23.8,73,11.12,,---,0.00,VWS V12.08,2013-04-22 06:50:00,
2013-04-22 02:55:00,43.9,35.8,30.58,SE,131,0.0,23.8,73,11.12,,---,0.00,VWS V12.08,2013-04-22 06:55:00,
2013-04-22 03:00:00,44.0,36.0,30.58,ESE,104,3.2,23.8,73,11.12,,---,0.00,VWS V12.08,2013-04-22 07:00:00,
2013-04-22 03:05:00,43.7,35.8,30.58,ESE,120,0.0,23.8,73,11.12,,---,0.00,VWS V12.08,2013-04-22 07:05:00,
2013-04-22 03:10:00,43.7,35.9,30.58,SE,146,0.0,23.8,74,11.12,,---,0.00,VWS V12.08,2013-04-22 07:10:00,
2013-04-22 03:15:00,43.7,36.0,30.58,East,97,0.0,23.8,74,11.12,,---,0.00,VWS V12.08,2013-04-22 07:15:00,
2013-04-22 03:20:00,43.6,35.9,30.58,SE,132,3.5,23.8,74,11.12,,---,0.00,VWS V12.08,2013-04-22 07:20:00,
2013-04-22 03:25:00,43.7,36.0,30.58,East,90,3.5,23.8,74,11.12,,---,0.00,VWS V12.08,2013-04-22 07:25:00,
2013-04-22 03:30:00,43.5,35.7,30.58,ESE,121,0.0,23.8,74,11.12,,---,0.00,VWS V12.08,2013-04-22 07:30:00,
2013-04-22 03:35:00,43.8,36.1,30.58,ENE,70,0.0,23.8,74,11.12,,---,0.00,VWS V12.08,2013-04-22 07:35:00,
2013-04-22 03:40:00,43.6,35.9,30.58,East,94,0.0,23.8,74,11.12,,---,0.00,VWS V12.08,2013-04-22 07:40:00,
2013-04-22 03:45:00,43.5,35.9,30.58,East,94,0.0,0.0,74,11.12,,---,0.00,VWS V12.08,2013-04-22 07:45:00,
2013-04-22 03:50:00,43.4,35.9,30.58,East,94,0.0,23.8,75,11.12,,---,0.00,VWS V12.08,2013-04-22 07:50:00,
2013-04-22 03:55:00,43.1,35.8,30.58,East,94,0.0,23.8,75,11.12,,---,0.00,VWS V12.08,2013-04-22 07:55:00,
2013-04-22 04:00:00,42.8,35.6,30.58,NE,41,0.0,23.8,76,11.12,,---,0.00,VWS V12.08,2013-04-22 08:00:00,
2013-04-22 04:05:00,43.0,35.9,30.58,East,94,3.4,23.8,76,11.12,,---,0.00,VWS V12.08,2013-04-22 08:05:00,
2013-04-22 04:10:00,42.8,35.8,30.58,NE,52,6.4,23.8,76,11.12,,---,0.00,VWS V12.08,2013-04-22 08:10:00,
2013-04-22 04:15:00,42.7,35.6,30.58,ENE,76,4.1,23.8,76,11.12,,---,0.00,VWS V12.08,2013-04-22 08:15:00,
2013-04-22 04:20:00,42.7,35.6,30.58,ENE,72,4.4,23.8,76,11.12,,---,0.00,VWS V12.08,2013-04-22 08:20:00,
2013-04-22 04:26:00,45.0,45.0,29.59,NNE,17,6.0,16.0,100,1.01,,---,0.35,VWS V12.08,2013-04-22 08:26:00,
2013-04-22 04:31:00,42.7,35.5,30.59,ENE,63,0.0,23.8,76,11.12,,---,0.00,VWS V12.08,2013-04-22 08:31:00,
2013-04-22 04:35:00,42.8,35.6,30.59,ENE,63,0.0,23.8,76,11.12,,---,0.00,VWS V12.08,2013-04-22 08:35:00,
2013-04-22 04:40:00,42.7,35.6,30.59,North,4,0.0,23.8,76,11.12,,---,0.00,VWS V12.08,2013-04-22 08:40:00,
2013-04-22 04:45:00,42.7,35.7,30.59,East,91,4.2,0.0,76,11.12,,---,0.00,VWS V12.08,2013-04-22 08:45:00,
2013-04-22 04:50:00,42.7,35.7,30.59,NE,55,0.0,23.8,76,11.12,,---,0.00,VWS V12.08,2013-04-22 08:50:00,
2013-04-22 04:55:00,42.7,35.9,30.59,NNE,17,0.0,23.8,77,11.12,,---,0.00,VWS V12.08,2013-04-22 08:55:00,
2013-04-22 05:00:00,42.5,35.8,30.59,NE,41,0.0,23.8,77,11.12,,---,0.00,VWS V12.08,2013-04-22 09:00:00,
2013-04-22 05:05:00,42.5,35.9,30.59,NE,41,0.0,23.8,77,11.12,,---,0.00,VWS V12.08,2013-04-22 09:05:00,
2013-04-22 05:10:00,42.2,35.7,30.59,NE,41,0.0,23.8,78,11.12,,---,0.00,VWS V12.08,2013-04-22 09:10:00,
2013-04-22 20:43:00,49.6,35.5,30.47,ENE,63,7.0,7.0,58,11.12,,---,0.00,VWS V12.08,2013-04-23 00:43:00,
2013-04-22 20:48:00,49.3,35.3,30.47,ENE,73,7.8,13.7,58,11.12,,---,0.00,VWS V12.08,2013-04-23 00:48:00,
2013-04-22 20:53:00,49.3,35.6,30.47,ENE,58,3.4,13.9,59,11.12,,---,0.00,VWS V12.08,2013-04-23 00:53:00,
2013-04-22 20:58:00,49.2,35.7,30.47,NE,56,8.9,13.9,59,11.12,,---,0.00,VWS V12.08,2013-04-23 00:58:00,
2013-04-22 21:03:00,49.0,35.6,30.47,ESE,103,15.8,15.8,60,11.12,,---,0.00,VWS V12.08,2013-04-23 01:03:00,
2013-04-22 21:08:00,48.9,35.6,30.47,ENE,68,7.5,15.8,60,11.12,,---,0.00,VWS V12.08,2013-04-23 01:08:00,
2013-04-22 21:13:00,48.7,35.5,30.47,ENE,70,11.1,15.8,60,11.12,,---,0.00,VWS V12.08,2013-04-23 01:13:00,
2013-04-22 21:18:00,48.9,35.8,30.47,East,82,7.6,15.8,60,11.12,,---,0.00,VWS V12.08,2013-04-23 01:18:00,
2013-04-22 21:23:00,48.8,35.8,30.47,NE,44,5.2,15.8,61,11.12,,---,0.00,VWS V12.08,2013-04-23 01:23:00,
2013-04-22 21:28:00,48.7,35.8,30.47,ENE,77,6.2,15.8,61,11.12,,---,0.00,VWS V12.08,2013-04-23 01:28:00,
2013-04-22 21:33:00,48.6,35.9,30.47,ENE,66,9.9,15.8,61,11.12,,---,0.00,VWS V12.08,2013-04-23 01:33:00,
2013-04-22 21:38:00,48.3,35.9,30.47,ENE,73,6.7,15.8,62,11.12,,---,0.00,VWS V12.08,2013-04-23 01:38:00,
2013-04-22 21:43:00,39.3,39.3,29.46,North,1,10.8,31.8,100,1.39,,---,1.33,VWS V12.08,2013-04-23 01:43:00,
2013-04-22 21:48:00,48.3,36.3,30.48,NNE,17,7.1,15.8,63,11.12,,---,0.00,VWS V12.08,2013-04-23 01:48:00,
2013-04-22 21:53:00,48.4,36.7,30.47,NNE,28,11.6,15.8,64,11.12,,---,0.00,VWS V12.08,2013-04-23 01:53:00,
2013-04-22 21:58:00,48.3,37.0,30.47,East,91,6.5,15.8,65,11.12,,---,0.00,VWS V12.08,2013-04-23 01:58:00,
2013-04-22 22:03:00,48.0,37.0,30.48,NNE,27,4.8,15.8,65,11.12,,---,0.00,VWS V12.08,2013-04-23 02:03:00,
2013-04-22 22:08:00,48.0,37.2,30.48,ENE,59,11.7,15.8,66,11.12,,---,0.00,VWS V12.08,2013-04-23 02:08:00,
2013-04-22 22:13:00,47.9,37.5,30.47,ENE,73,7.1,15.8,67,11.12,,---,0.00,VWS V12.08,2013-04-23 02:13:00,
2013-04-22 22:18:00,48.0,38.2,30.47,North,3,10.3,15.8,69,11.12,,---,0.00,VWS V12.08,2013-04-23 02:18:00,
2013-04-22 22:23:00,47.9,38.2,30.47,NE,51,7.6,15.8,69,11.12,,---,0.00,VWS V12.08,2013-04-23 02:23:00,
2013-04-22 22:28:00,47.7,38.2,30.47,ENE,59,11.8,15.8,69,11.12,,---,0.00,VWS V12.08,2013-04-23 02:28:00,
2013-04-22 22:33:00,47.8,38.5,30.47,NNE,27,6.2,15.8,70,11.12,,---,0.00,VWS V12.08,2013-04-23 02:33:00,
2013-04-22 22:38:00,47.7,39.9,30.47,East,82,5.1,15.8,74,11.12,,---,0.00,VWS V12.08,2013-04-23 02:38:00,
2013-04-22 22:43:00,47.5,40.2,30.47,NE,44,7.3,15.8,76,11.12,,---,0.00,VWS V12.08,2013-04-23 02:43:00,
2013-04-22 22:48:00,47.5,40.7,30.46,ENE,76,4.4,15.8,77,11.12,,---,0.00,VWS V12.08,2013-04-23 02:48:00,
2013-04-22 22:53:00,47.4,40.9,30.47,North,7,3.3,15.8,78,11.12,,---,0.00,VWS V12.08,2013-04-23 02:53:00,
2013-04-22 22:58:00,47.3,40.9,30.47,NNE,27,3.4,15.8,78,11.12,,---,0.00,VWS V12.08,2013-04-23 02:58:00,
2013-04-22 23:03:00,47.3,40.9,30.46,ENE,65,4.3,15.8,78,11.12,,---,0.00,VWS V12.08,2013-04-23 03:03:00,
2013-04-22 23:08:00,47.0,40.7,30.46,NNE,27,7.6,15.8,78,11.12,,---,0.00,VWS V12.08,2013-04-23 03:08:00,
2013-04-22 23:13:00,47.1,40.8,30.46,NE,52,4.3,15.8,79,11.12,,---,0.00,VWS V12.08,2013-04-23 03:13:00,
2013-04-22 23:18:00,47.0,40.6,30.46,NNE,21,6.5,15.8,78,11.12,,---,0.00,VWS V12.08,2013-04-23 03:18:00,
2013-04-22 23:23:00,47.0,40.7,30.46,NNE,15,8.7,15.8,79,11.12,,---,0.00,VWS V12.08,2013-04-23 03:23:00,
2013-04-22 23:28:00,46.6,40.2,30.46,NE,34,6.1,0.0,78,11.12,,---,0.00,VWS V12.08,2013-04-23 03:28:00,
2013-04-22 23:33:00,46.6,40.1,30.46,ENE,65,5.5,0.0,78,11.12,,---,0.00,VWS V12.08,2013-04-23 03:33:00,
2013-04-22 23:38:00,46.3,39.7,30.46,NE,48,9.6,15.8,78,11.12,,---,0.00,VWS V12.08,2013-04-23 03:38:00,
2013-04-22 23:43:00,46.2,39.5,30.45,NE,35,9.4,15.9,77,11.12,,---,0.00,VWS V12.08,2013-04-23 03:43:00,
2013-04-22 23:48:00,46.2,39.3,30.46,NNE,30,12.1,15.9,77,11.12,,---,0.00,VWS V12.08,2013-04-23 03:48:00,
2013-04-22 23:53:00,46.0,39.0,30.46,NE,48,7.0,16.3,76,11.12,,---,0.00,VWS V12.08,2013-04-23 03:53:00,
2013-04-22 23:58:00,46.1,39.0,30.46,NE,39,12.1,16.4,76,11.12,,---,0.00,VWS V12.08,2013-04-23 03:58:00,